Dauntless Aviation
Greetings, Guest! To participate, [sign up for a free account] or [log in]
Airports Europe Germany
EDSW

Altdorf-Wallburg

Altdorf-Wallburg, GERMANY

Airport Info
Edit

Location

Latitude / Longitude: 48°16'11"N / 7°50'31"E
  48°16.188'N / 7°50.532'E
  48.2698 / 7.8422
Satellite photo at:
Airport distance calculator
From:
Weather Reports

METAR

LFST
18.2nm NW
LFST 051600Z AUTO 31004KT CAVOK 17/07 Q1019
EDSB
32.3nm N
EDSB 051550Z VRB02KT 9999 -SHRA FEW028 BKN065 15/08 Q1018

TAF

LFST
18.2nm NW
TAF LFST 051100Z 0512/0612 29008KT 9999 SCT030 BKN050 PROB30 TEMPO 0512/0519 30010G20KT 5000 SHRA SCT045TCU TEMPO 0523/0604 -RA SCT020 BKN030
EDSB
32.3nm N
TAF EDSB 051100Z 0512/0612 24008KT 9999 SCT035 PROB30 TEMPO 0521/0602 30012KT SHRA BKN020TCU
Safelog

 

Dauntless Aviation

© 2007-2015 Dauntless Aviation, all rights reserved
Information provided via PilotNav comes from a variety of official and unofficial data sources. As errors are possible, do not use PilotNav for primary flight planning purposes. Verify any information that you receive via PilotNav with current and canonical charts and other official documents. The material in this database is subject to database copyrights held by Dauntless Aviation and may not be copied without the express permission of Dauntless Aviation - licenses for use of part of all of this data are available for purchase; enquire via the Dauntless Aviation helpdesk. A number of mechanisms and markers exist in the database to protect against and identify infringement / copyright. Automated queries against this website are stictly prohibited, and all activity is logged and analyzed.